GW2427 Weather Reports


time (UTC)temp
C
wind
direction
speed
KPH
gust
KPH
rain 1hr
cm
rain 24hr
cm
rain mn
cm
humidity
%
barometer
mb
20260506015241 16 96 0.0 0.0 0.00 0.00 0.00 73 1015.4
20260506014738 16 80 0.0 0.0 0.00 0.00 0.00 73 1015.2
20260506014234 16 86 0.0 0.0 0.00 0.00 0.00 72 1015.2
20260506013732 16 81 0.0 0.0 0.00 0.00 0.00 72 1015.0
20260506013229 17 95 0.0 0.0 0.00 0.00 0.00 71 1015.2
20260506012725 17 120 0.0 0.0 0.00 0.00 0.00 70 1015.2
20260506012222 17 84 0.0 0.0 0.00 0.00 0.00 70 1015.2
20260506011719 17 83 0.0 0.0 0.00 0.00 0.00 69 1015.0
20260506011215 17 115 0.0 1.6 0.00 0.00 0.00 68 1015.2
20260506010714 18 89 0.0 0.0 0.00 0.00 0.00 68 1015.3
20260506010211 18 85 0.0 0.0 0.00 0.00 0.00 67 1015.3
20260506005708 18 98 0.0 0.0 0.00 0.00 0.00 66 1015.2
20260506005205 18 95 0.0 0.0 0.00 0.00 0.00 66 1015.3
20260506004701 18 96 0.0 0.0 0.00 0.00 0.00 65 1015.1
20260506004159 19 113 0.0 1.6 0.00 0.00 0.00 64 1014.9
20260506003654 19 87 0.0 0.0 0.00 0.00 0.00 63 1015.1
20260506003151 20 89 0.0 0.0 0.00 0.00 0.00 62 1014.9
20260506002646 20 149 0.0 1.6 0.00 0.00 0.00 62 1014.9
20260506002143 20 145 1.6 3.2 0.00 0.00 0.00 62 1014.9
20260506001638 20 73 0.0 0.0 0.00 0.00 0.00 61 1014.9
20260506001136 20 48 0.0 1.6 0.00 0.00 0.00 60 1015.0
20260506000633 20 71 0.0 1.6 0.00 0.00 0.00 60 1014.7
20260506000130 20 74 0.0 0.0 0.00 0.00 0.00 60 1015.1
20260505235629 20 351 0.0 1.6 0.00 0.00 0.00 59 1014.8
20260505235125 21 86 1.6 1.6 0.00 0.00 0.00 59 1015.0
20260505234617 21 155 1.6 1.6 0.00 0.00 0.00 59 1015.0
20260505234114 21 55 0.0 0.0 0.00 0.00 0.00 58 1014.9
20260505233612 21 79 0.0 0.0 0.00 0.00 0.00 58 1014.9
20260505233109 21 67 0.0 0.0 0.00 0.00 0.00 58 1014.9
20260505232606 21 129 1.6 3.2 0.00 0.00 0.00 59 1014.9
20260505232103 21 114 1.6 1.6 0.00 0.00 0.00 58 1014.8
20260505231600 21 194 0.0 0.0 0.00 0.00 0.00 59 1014.8
20260505231059 21 153 4.8 9.7 0.00 0.00 0.00 58 1014.8
20260505230556 21 181 8.0 11.3 0.00 0.00 0.00 58 1014.9
20260505230052 22 79 3.2 9.7 0.00 0.00 0.00 58 1014.7
20260505225549 22 343 0.0 0.0 0.00 0.00 0.00 58 1015.0
20260505225045 22 155 0.0 0.0 0.00 0.00 0.00 58 1014.9
20260505224542 22 149 0.0 0.0 0.00 0.00 0.00 57 1015.0
20260505224039 22 131 3.2 9.7 0.00 0.00 0.00 57 1015.3
20260505223536 23 157 1.6 3.2 0.00 0.00 0.00 56 1015.1
20260505223032 23 75 0.0 0.0 0.00 0.00 0.00 56 1015.3
20260505222529 23 147 0.0 0.0 0.00 0.00 0.00 56 1015.0
20260505222025 23 88 0.0 0.0 0.00 0.00 0.00 56 1014.8
20260505221522 23 130 0.0 0.0 0.00 0.00 0.00 55 1014.9
20260505221019 23 358 0.0 0.0 0.00 0.00 0.00 56 1014.9
20260505220516 23 174 1.6 3.2 0.00 0.00 0.00 56 1014.9
20260505220014 23 122 0.0 0.0 0.00 0.00 0.00 57 1014.8
20260505215512 23 98 0.0 1.6 0.00 0.00 0.00 56 1014.7
20260505215009 23 153 0.0 1.6 0.00 0.00 0.00 57 1014.4
20260505214508 22 282 0.0 0.0 0.00 0.00 0.00 58 1014.6
20260505214004 23 171 0.0 1.6 0.00 0.00 0.00 56 1014.6
20260505213502 23 113 1.6 4.8 0.00 0.00 0.00 57 1014.8
20260505212958 23 108 0.0 0.0 0.00 0.00 0.00 57 1014.9
20260505212454 23 190 3.2 8.0 0.00 0.00 0.00 56 1014.9
20260505211951 23 110 0.0 0.0 0.00 0.00 0.00 56 1014.9
20260505211449 24 269 1.6 4.8 0.00 0.00 0.00 55 1014.9
20260505210944 25 7 0.0 0.0 0.00 0.00 0.00 53 1014.9
20260505210442 25 142 0.0 3.2 0.00 0.00 0.00 54 1014.7
20260505205938 24 149 1.6 4.8 0.00 0.00 0.00 55 1014.8
20260505205437 24 79 0.0 3.2 0.00 0.00 0.00 54 1014.8
20260505204933 25 136 0.0 1.6 0.00 0.00 0.00 54 1014.5
20260505204431 25 39 0.0 0.0 0.00 0.00 0.00 54 1014.6
20260505203928 24 130 0.0 0.0 0.00 0.00 0.00 55 1014.8
20260505203425 25 65 0.0 0.0 0.00 0.00 0.00 54 1014.9
20260505202921 25 136 4.8 4.8 0.00 0.00 0.00 54 1014.6
20260505202417 25 84 0.0 1.6 0.00 0.00 0.00 53 1014.7
20260505201914 25 86 0.0 0.0 0.00 0.00 0.00 54 1014.7
20260505201411 25 168 0.0 0.0 0.00 0.00 0.00 54 1014.8
20260505200910 25 67 0.0 3.2 0.00 0.00 0.00 53 1014.9
20260505200406 25 257 1.6 4.8 0.00 0.00 0.00 54 1014.9
20260505195901 25 171 6.4 14.5 0.00 0.00 0.00 54 1014.8
20260505195359 25 89 0.0 0.0 0.00 0.00 0.00 53 1015.3
20260505194856 25 91 0.0 0.0 0.00 0.00 0.00 53 1015.0
20260505194354 25 133 1.6 3.2 0.00 0.00 0.00 53 1015.3
20260505193849 25 346 0.0 0.0 0.00 0.00 0.00 54 1015.2
20260505193347 25 61 0.0 0.0 0.00 0.00 0.00 54 1015.4
20260505192844 25 303 1.6 4.8 0.00 0.00 0.00 52 1015.3
20260505192343 25 359 0.0 0.0 0.00 0.00 0.00 53 1015.4
20260505191840 26 73 1.6 3.2 0.00 0.00 0.00 51 1015.3
20260505191338 26 87 0.0 0.0 0.00 0.00 0.00 52 1015.4
20260505190834 25 128 0.0 0.0 0.00 0.00 0.00 52 1015.4
20260505190330 25 101 0.0 0.0 0.00 0.00 0.00 51 1015.4
20260505185826 25 183 3.2 4.8 0.00 0.00 0.00 50 1015.4
20260505185322 26 67 0.0 4.8 0.00 0.00 0.00 50 1016.0
20260505184818 25 162 0.0 0.0 0.00 0.00 0.00 50 1015.7
20260505184316 26 196 1.6 3.2 0.00 0.00 0.00 49 1015.8
20260505183813 25 203 0.0 0.0 0.00 0.00 0.00 49 1016.0
20260505183310 25 116 0.0 0.0 0.00 0.00 0.00 49 1016.0
20260505182806 25 195 4.8 4.8 0.00 0.00 0.00 51 1015.6
20260505182305 25 347 0.0 0.0 0.00 0.00 0.00 50 1015.8
20260505181800 26 320 0.0 0.0 0.00 0.00 0.00 48 1016.0
20260505181257 26 139 6.4 12.9 0.00 0.00 0.00 49 1015.8
20260505180753 25 70 4.8 11.3 0.00 0.00 0.00 50 1015.8
20260505180250 25 83 0.0 0.0 0.00 0.00 0.00 51 1015.9
20260505175747 24 153 1.6 8.0 0.00 0.00 0.00 53 1016.2
20260505175243 25 183 0.0 0.0 0.00 0.00 0.00 51 1015.8
20260505174740 25 162 0.0 1.6 0.00 0.00 0.00 51 1015.7
20260505174237 25 77 0.0 0.0 0.00 0.00 0.00 51 1015.9
20260505173733 25 87 0.0 1.6 0.00 0.00 0.00 51 1015.9
20260505173230 26 179 0.0 1.6 0.00 0.00 0.00 51 1016.1
20260505172727 25 68 0.0 0.0 0.00 0.00 0.00 51 1016.0
20260505172224 26 123 11.3 14.5 0.00 0.00 0.00 51 1015.9
20260505171723 25 122 1.6 4.8 0.00 0.00 0.00 52 1015.9
20260505171221 25 67 0.0 0.0 0.00 0.00 0.00 52 1016.2
20260505170718 25 65 0.0 0.0 0.00 0.00 0.00 52 1015.8
20260505170215 25 150 3.2 8.0 0.00 0.00 0.00 52 1016.1
20260505165710 25 117 1.6 4.8 0.00 0.00 0.00 52 1016.0
20260505165206 25 287 3.2 4.8 0.00 0.00 0.00 52 1016.0
20260505164701 25 74 0.0 1.6 0.00 0.00 0.00 52 1015.9
20260505164158 25 180 3.2 8.0 0.00 0.00 0.00 53 1016.0
20260505163656 25 268 4.8 11.3 0.00 0.00 0.00 52 1016.0
20260505163154 25 178 0.0 1.6 0.00 0.00 0.00 53 1016.3
20260505162652 25 201 1.6 4.8 0.00 0.00 0.00 52 1016.1
20260505162149 25 96 0.0 0.0 0.00 0.00 0.00 52 1016.3
20260505161646 25 144 1.6 4.8 0.00 0.00 0.00 53 1016.3
20260505161144 25 105 1.6 3.2 0.00 0.00 0.00 54 1016.2
20260505160641 24 103 1.6 4.8 0.00 0.00 0.00 53 1016.4
20260505160138 25 57 0.0 0.0 0.00 0.00 0.00 53 1016.5
20260505153118 24 60 0.0 0.0 0.00 0.00 0.00 52 1016.5
20260505152614 25 204 0.0 0.0 0.00 0.00 0.00 52 1016.6
20260505152110 25 105 0.0 0.0 0.00 0.00 0.00 53 1016.4
20260505151606 23 149 0.0 0.0 0.00 0.00 0.00 56 1016.5
20260505151103 23 311 0.0 0.0 0.00 0.00 0.00 53 1016.5
20260505150559 24 116 0.0 0.0 0.00 0.00 0.00 54 1016.7
20260505140525 22 300 0.0 0.0 0.00 0.00 0.00 59 1016.5
20260505124938 20 90 0.0 0.0 0.00 0.00 0.00 84 1016.4
20260505124435 20 345 0.0 0.0 0.00 0.00 0.00 84 1016.4
20260505123931 20 54 0.0 0.0 0.00 0.00 0.00 84 1016.3
20260505123428 18 76 0.0 0.0 0.00 0.00 0.00 84 1016.4
20260505122924 18 97 0.0 0.0 0.00 0.00 0.00 85 1016.4
20260505122421 17 108 0.0 0.0 0.00 0.00 0.00 85 1016.3
20260505121918 17 97 0.0 0.0 0.00 0.00 0.00 85 1016.3
20260505121415 16 86 0.0 0.0 0.00 0.00 0.00 85 1016.2
20260505120911 16 73 0.0 0.0 0.00 0.00 0.00 85 1016.4
20260505120407 15 93 0.0 0.0 0.00 0.00 0.00 85 1016.4
20260505115906 13 86 0.0 0.0 0.00 0.00 0.00 85 1016.5
20260505115403 12 88 0.0 0.0 0.00 0.00 0.00 85 1016.4
20260505114901 12 84 0.0 0.0 0.00 0.00 0.00 85 1016.4
20260505114357 12 89 0.0 0.0 0.00 0.00 0.00 85 1016.3
20260505113853 11 87 0.0 0.0 0.00 0.00 0.00 85 1016.3
20260505113350 11 87 0.0 0.0 0.00 0.00 0.00 84 1016.3
20260505112845 11 82 0.0 0.0 0.00 0.00 0.00 84 1016.2
20260505112344 10 82 0.0 0.0 0.00 0.00 0.00 84 1016.1
20260505111839 10 82 0.0 0.0 0.00 0.00 0.00 84 1016.0
20260505111335 10 82 0.0 0.0 0.00 0.00 0.00 84 1016.0
20260505110831 9 82 0.0 0.0 0.00 0.00 0.00 84 1015.9
20260505110329 9 82 0.0 0.0 0.00 0.00 0.00 84 1015.7
20260505101803 8 85 0.0 0.0 0.00 0.00 0.00 84 1015.3
20260505101258 8 81 0.0 0.0 0.00 0.00 0.00 84 1015.3
20260505100755 8 81 0.0 0.0 0.00 0.00 0.00 84 1015.3
20260505100252 8 81 0.0 0.0 0.00 0.00 0.00 84 1015.3
20260505095748 8 81 0.0 0.0 0.00 0.00 0.00 84 1015.3
20260505095246 8 79 0.0 0.0 0.00 0.00 0.00 84 1015.2
20260505094741 8 81 0.0 0.0 0.00 0.00 0.00 83 1015.2
20260505094238 9 81 0.0 0.0 0.00 0.00 0.00 83 1015.1
20260505093734 9 81 0.0 0.0 0.00 0.00 0.00 83 1015.0
20260505093231 9 79 0.0 0.0 0.00 0.00 0.00 83 1014.8
20260505092728 9 80 0.0 0.0 0.00 0.00 0.00 83 1014.7
20260505092227 9 81 0.0 0.0 0.00 0.00 0.00 83 1014.6
20260505091723 9 85 0.0 0.0 0.00 0.00 0.00 83 1014.8
20260505091222 9 81 0.0 0.0 0.00 0.00 0.00 83 1014.7
20260505090719 9 80 0.0 0.0 0.00 0.00 0.00 83 1014.7
20260505090217 9 81 0.0 0.0 0.00 0.00 0.00 83 1014.7
20260505085714 9 85 0.0 0.0 0.00 0.00 0.00 83 1014.3
20260505085212 9 81 0.0 0.0 0.00 0.00 0.00 83 1014.7
20260505084709 10 81 0.0 0.0 0.00 0.00 0.00 83 1014.5
20260505084209 10 80 0.0 0.0 0.00 0.00 0.00 83 1014.6
20260505083705 9 79 0.0 0.0 0.00 0.00 0.00 83 1014.7
20260505083202 10 82 0.0 0.0 0.00 0.00 0.00 83 1014.7
20260505082657 10 82 0.0 0.0 0.00 0.00 0.00 83 1014.5
20260505082155 10 83 0.0 0.0 0.00 0.00 0.00 83 1014.8
20260505081650 10 95 0.0 0.0 0.00 0.00 0.00 83 1014.5
20260505081148 10 84 0.0 0.0 0.00 0.00 0.00 83 1014.5
20260505080645 10 81 0.0 0.0 0.00 0.00 0.00 83 1014.4
20260505080141 10 81 0.0 0.0 0.00 0.00 0.00 83 1014.5
20260505075637 10 81 0.0 0.0 0.00 0.00 0.00 83 1014.5
20260505075134 10 77 0.0 0.0 0.00 0.00 0.00 83 1014.5
20260505074631 10 76 0.0 0.0 0.00 0.00 0.00 82 1014.4
20260505074128 10 81 0.0 0.0 0.00 0.00 0.00 82 1014.6
20260505073626 10 84 0.0 0.0 0.00 0.00 0.00 82 1014.6
20260505073124 10 76 0.0 0.0 0.00 0.00 0.00 82 1014.4
20260505072619 10 79 0.0 0.0 0.00 0.00 0.00 82 1014.5
20260505072116 10 79 0.0 0.0 0.00 0.00 0.00 82 1014.5
20260505071611 10 81 0.0 0.0 0.00 0.00 0.00 82 1014.4
20260505071109 10 81 0.0 0.0 0.00 0.00 0.00 82 1014.3
20260505070606 10 81 0.0 0.0 0.00 0.00 0.00 82 1014.3
20260505065558 10 82 0.0 0.0 0.00 0.00 0.00 82 1014.3
20260505065055 10 91 0.0 0.0 0.00 0.00 0.00 82 1014.4
20260505064552 10 88 0.0 0.0 0.00 0.00 0.00 81 1014.6
20260505064051 11 85 0.0 0.0 0.00 0.00 0.00 81 1014.3
20260505063547 11 85 0.0 0.0 0.00 0.00 0.00 81 1014.7
20260505050144 11 83 0.0 0.0 0.00 0.00 0.00 79 1015.4
20260505041613 11 81 0.0 0.0 0.00 0.00 0.00 78 1015.3
20260505041110 11 81 0.0 0.0 0.00 0.00 0.00 78 1015.5
20260505040608 11 81 0.0 0.0 0.00 0.00 0.00 78 1015.3
20260505040105 11 81 0.0 0.0 0.00 0.00 0.00 77 1015.4
20260505035601 11 81 0.0 0.0 0.00 0.00 0.00 77 1015.5
20260505035057 11 83 0.0 0.0 0.00 0.00 0.00 77 1015.4
20260505034554 11 82 0.0 0.0 0.00 0.00 0.00 77 1015.4
20260505034051 12 84 0.0 0.0 0.00 0.00 0.00 77 1015.5
20260505033548 12 86 0.0 0.0 0.00 0.00 0.00 76 1015.5
20260505033046 12 82 0.0 0.0 0.00 0.00 0.00 76 1015.5
20260505032544 12 81 0.0 0.0 0.00 0.00 0.00 76 1015.4
20260505032040 12 82 0.0 0.0 0.00 0.00 0.00 76 1015.3
20260505031537 12 81 0.0 0.0 0.00 0.00 0.00 75 1015.6
20260505031033 12 82 0.0 0.0 0.00 0.00 0.00 75 1015.6
20260505030531 12 82 0.0 0.0 0.00 0.00 0.00 75 1015.5
20260505030026 12 84 0.0 0.0 0.00 0.00 0.00 75 1015.6
20260505025522 12 81 0.0 0.0 0.00 0.00 0.00 74 1015.6
20260505025022 12 81 0.0 0.0 0.00 0.00 0.00 74 1015.6
20260505024518 12 81 0.0 0.0 0.00 0.00 0.00 74 1015.5
20260505024015 13 82 0.0 0.0 0.00 0.00 0.00 73 1015.7
20260505023512 13 84 0.0 0.0 0.00 0.00 0.00 73 1015.5
20260505023010 13 87 0.0 0.0 0.00 0.00 0.00 73 1015.5
20260505022507 13 80 0.0 0.0 0.00 0.00 0.00 72 1015.4
20260505022004 13 82 0.0 0.0 0.00 0.00 0.00 72 1015.6
20260505021501 13 89 0.0 0.0 0.00 0.00 0.00 72 1015.5
20260505020956 13 83 0.0 0.0 0.00 0.00 0.00 71 1015.7
20260505020452 13 89 0.0 0.0 0.00 0.00 0.00 71 1015.4
20260505015949 14 93 0.0 0.0 0.00 0.00 0.00 70 1015.5
20260505015446 14 83 0.0 0.0 0.00 0.00 0.00 70 1015.5